This is the latest recevied weather packets stored in our database for station/object KS5S. If no packets are shown the sender has not sent any weather packets the latest 10 day(s).
| Time | Temp. | Humidity | Pressure | Rain* | Wind** | Luminosity | Snow |
|---|---|---|---|---|---|---|---|
| 1777653530 | 15.56° C | 75% | 1014.6 hPa | 0 mm | - | 323 W/m² | - |
| 1777653227 | 15.56° C | 76% | 1014.8 hPa | 0 mm | - | 317 W/m² | - |
| 1777652924 | 15.56° C | 76% | 1014.6 hPa | 0 mm | - | 260 W/m² | - |
| 1777652620 | 15° C | 76% | 1014.6 hPa | 0 mm | - | 243 W/m² | - |
| 1777652317 | 15.56° C | 78% | 1014.4 hPa | 0 mm | - | 281 W/m² | - |
| 1777652014 | 15° C | 77% | 1014.4 hPa | 0 mm | - | 303 W/m² | - |
| 1777651711 | 15° C | 76% | 1014.6 hPa | 0 mm | - | 226 W/m² | - |
| 1777651407 | 15° C | 81% | 1014.5 hPa | 0 mm | - | 280 W/m² | - |
| 1777651105 | 15° C | 81% | 1014.8 hPa | 0 mm | - | 230 W/m² | - |
| 1777650801 | 15° C | 81% | 1014.8 hPa | 0 mm | - | 304 W/m² | - |
| 1777650498 | 15° C | 85% | 1014.6 hPa | 0 mm | - | 271 W/m² | - |
| 1777650196 | 15° C | 87% | 1014.7 hPa | 0 mm | - | 256 W/m² | - |
| 1777649893 | 15° C | 89% | 1014.7 hPa | 0 mm | - | 174 W/m² | - |
| 1777649590 | 14.44° C | 90% | 1014.7 hPa | 0 mm | - | 109 W/m² | - |
| 1777649286 | 14.44° C | 91% | 1014.3 hPa | 0 mm | - | 111 W/m² | - |
| 1777648983 | 14.44° C | 91% | 1014.1 hPa | 0 mm | - | 112 W/m² | - |
| 1777648681 | 14.44° C | 90% | 1014 hPa | 0 mm | - | 94 W/m² | - |
| 1777648377 | 14.44° C | 90% | 1014.2 hPa | 0 mm | - | 101 W/m² | - |
| 1777648073 | 14.44° C | 90% | 1014.5 hPa | 0 mm | - | 158 W/m² | - |
| 1777647769 | 14.44° C | 91% | 1014.8 hPa | 0 mm | - | 86 W/m² | - |
| 1777647466 | 14.44° C | 91% | 1014.9 hPa | 0 mm | - | 54 W/m² | - |
| 1777647164 | 14.44° C | 92% | 1014.8 hPa | 0 mm | - | 57 W/m² | - |
| 1777646859 | 14.44° C | 92% | 1014.1 hPa | 0 mm | - | 71 W/m² | - |
| 1777646556 | 14.44° C | 92% | 1014.1 hPa | 0 mm | - | 47 W/m² | - |
| 1777646253 | 14.44° C | 93% | 1014 hPa | 0 mm | - | 49 W/m² | - |
* Rain latest hour (hover to see other rain measurements)
** Current wind speed in m/s (hover to see current wind gust speed)